GEFSMW_500_meanwind_186.txt.gz
Wind_Speed
26 27 27 28 28 28 29 29 28 29 30 30 30 30 30 30 30 31 32 32 32 32 33 33 34 35 35 35 35 35 36 36 37 37 38 38 38 38 38 39 39 40 40
24 26 27 28 28 29 29 28 29 29 29 30 30 30 30 30 31 32 34 34 34 34 34 34 34 35 36 36 37 37 38 38 39 40 40 40 40 41 41 41 41 41 42
24 25 25 27 28 28 29 28 28 28 29 30 30 30 31 31 32 33 34 36 36 35 36 36 36 36 36 36 37 38 38 39 40 41 42 42 42 42 42 43 43 43 43
24 26 26 26 27 28 29 29 29 29 30 31 31 31 32 33 33 33 34 35 36 37 37 37 38 38 39 39 39 39 39 40 41 42 42 43 43 43 43 43 44 44 45
25 26 27 27 28 29 29 30 31 31 31 32 32 32 32 33 34 34 35 35 36 37 37 38 39 39 39 41 41 42 42 42 42 42 43 43 44 44 44 44 44 44 44
24 26 27 28 29 30 31 31 31 32 32 32 33 34 34 34 35 35 36 36 37 38 39 39 40 40 41 42 43 44 44 43 43 43 43 44 45 45 45 44 44 44 44
25 27 27 28 29 31 32 32 32 33 33 34 34 34 34 35 36 36 37 37 38 39 40 40 41 42 43 43 44 45 45 45 45 45 45 45 46 45 45 45 45 45 45
26 27 28 28 30 31 33 34 34 33 34 35 35 35 35 36 37 37 38 39 40 40 41 42 43 43 43 44 45 46 46 46 46 46 46 46 46 46 46 46 46 46 46
26 27 28 29 30 31 32 34 34 34 35 36 37 38 37 38 38 39 40 40 41 42 42 43 44 45 45 46 47 47 47 47 47 47 47 48 47 48 48 47 47 47 47
27 28 29 29 30 31 32 33 34 35 36 36 37 38 39 40 40 42 42 42 43 44 45 45 46 46 47 47 47 47 48 49 49 49 49 49 50 50 49 48 48 48 48
28 29 30 31 32 32 33 35 36 36 37 38 39 39 40 41 43 43 43 44 45 46 47 47 48 48 48 48 49 49 49 50 50 50 50 50 50 49 48 48 48 47 47
29 30 31 33 34 34 35 36 37 38 38 39 40 41 42 42 43 44 45 46 47 47 48 48 48 48 49 49 50 51 51 51 51 50 50 49 49 48 48 48 48 47 47
32 33 33 34 35 36 37 38 39 39 40 41 42 42 43 44 44 45 46 47 47 47 48 48 48 49 49 50 50 50 50 50 50 50 49 49 48 48 48 47 47 47 47
35 36 36 36 37 38 39 39 40 41 42 43 43 44 45 45 45 45 46 46 47 47 47 48 48 49 49 50 49 49 49 49 49 48 48 48 49 49 48 48 47 47 47
37 37 38 39 39 40 40 41 42 42 42 43 44 45 46 46 46 46 46 47 47 47 48 48 49 49 49 49 49 49 48 47 48 48 48 49 49 49 48 48 47 47 47
38 39 39 40 41 42 42 43 43 43 43 44 45 45 45 46 46 47 47 47 48 48 49 48 49 48 48 48 48 47 47 47 47 48 48 48 48 47 47 47 47 47 47
39 39 40 41 42 42 42 42 42 43 44 44 44 45 46 46 47 47 48 48 48 48 48 47 47 48 47 47 47 47 46 46 46 46 47 47 46 46 46 46 46 47 47
40 40 41 41 41 42 43 43 43 44 44 44 45 46 46 47 46 47 47 47 47 47 47 47 47 47 46 46 46 46 46 46 45 45 45 45 45 45 45 45 45 45 45
41 41 41 42 42 43 43 43 43 44 45 45 45 46 46 46 45 45 45 46 46 46 46 45 45 45 44 44 44 45 45 44 44 44 44 44 44 44 44 43 43 43 43
42 42 42 42 43 43 43 43 44 45 45 45 45 46 45 45 44 44 44 45 45 44 44 43 43 43 43 43 43 43 43 42 42 42 42 42 42 43 43 42 41 41 41
43 43 43 43 43 43 43 44 44 44 44 44 44 44 44 43 43 43 43 43 43 42 42 42 42 42 41 41 41 41 41 41 41 41 40 41 41 41 40 40 40 40 40
44 44 44 44 44 44 44 44 44 44 43 43 43 42 42 42 42 42 42 42 42 41 41 41 41 41 40 40 40 40 39 39 40 39 39 39 39 38 38 38 38 38 38
44 44 44 44 44 44 44 44 44 44 43 43 42 42 42 42 42 41 41 41 40 40 40 40 39 39 39 39 39 39 38 39 39 38 38 38 37 37 36 36 36 37 37
44 44 43 43 43 44 44 43 43 43 42 42 41 41 40 41 41 40 40 39 39 39 39 39 38 38 38 37 37 37 37 37 36 36 36 36 36 35 34 34 35 35 35
44 43 43 42 42 42 42 42 42 42 42 41 40 40 39 39 39 39 39 39 38 38 38 38 38 37 37 37 36 36 36 35 35 35 35 35 34 34 33 33 34 34 35
42 42 42 42 41 41 41 42 42 41 41 40 39 39 38 38 38 38 38 37 37 37 37 37 36 36 36 35 35 34 34 34 34 34 34 33 33 33 33 34 34 34 34

GEFSMW_500_meanwind_192.txt.gz
Wind_Speed
22 23 25 25 25 26 27 29 29 29 29 28 29 29 30 31 31 31 32 32 32 33 33 33 33 34 33 33 33 34 34 35 35 34 34 35 35 35 36 36 37 37 38
22 24 25 26 26 26 27 27 29 29 29 29 29 30 31 31 31 32 33 34 34 34 34 35 34 34 33 34 34 35 35 36 37 37 37 36 36 36 37 37 38 39 39
22 24 25 25 26 26 27 28 29 29 29 29 30 31 31 32 32 34 34 34 34 34 34 35 35 35 34 34 35 35 36 36 37 38 38 38 38 38 37 38 39 39 40
22 23 25 26 26 27 27 27 28 30 30 30 31 32 31 32 32 32 33 34 34 34 35 35 35 35 35 35 36 37 37 38 38 38 39 39 40 40 40 40 40 40 41
22 23 25 26 26 27 28 28 29 30 30 30 30 30 31 31 31 31 31 32 33 34 35 36 36 37 37 37 38 38 39 39 39 40 40 40 40 41 41 41 41 42 43
23 24 25 26 26 27 29 29 30 31 31 31 31 31 31 32 32 32 33 33 33 35 36 36 37 39 39 39 39 39 40 40 41 41 41 42 42 43 43 43 43 43 43
24 25 27 27 27 28 29 30 31 32 33 33 33 33 33 34 34 34 35 35 35 36 36 37 38 40 41 41 41 41 42 42 43 43 43 43 44 45 45 45 45 45 45
26 27 28 28 28 29 30 30 31 32 33 34 35 35 35 36 36 36 36 37 37 37 38 38 40 41 42 42 42 43 43 44 44 44 44 45 45 46 47 47 47 47 46
27 28 29 30 31 31 32 32 33 33 34 34 35 36 36 37 37 38 38 38 38 39 39 40 41 42 43 44 44 45 45 45 45 46 46 46 47 48 48 48 49 49 48
29 29 31 32 32 32 33 34 34 35 36 36 36 36 37 38 39 40 40 40 40 41 41 42 43 44 45 46 46 46 46 47 47 47 47 48 49 49 49 49 49 49 49
30 31 32 33 34 35 35 35 36 36 36 37 37 37 38 40 41 42 42 42 43 43 44 44 45 46 47 47 47 47 48 48 48 49 49 49 50 49 49 49 49 49 49
32 33 34 34 35 35 36 36 37 38 38 39 39 40 40 42 43 44 44 45 45 46 46 47 46 47 48 48 49 48 49 49 50 50 50 50 50 50 50 50 50 50 50
34 34 35 35 35 36 37 38 39 40 40 41 42 42 43 43 44 45 46 47 47 48 48 48 48 48 49 50 50 50 50 50 51 51 51 51 50 50 50 50 50 50 51
36 37 37 37 37 38 39 39 40 41 42 42 43 44 44 45 46 47 47 48 48 48 49 49 49 49 50 50 51 52 52 51 51 51 51 51 51 51 51 50 50 50 50
38 39 39 39 40 40 41 41 42 43 43 44 44 45 46 47 47 48 49 49 49 49 50 50 50 50 50 51 52 52 52 52 51 51 51 52 52 51 51 50 50 50 50
40 41 41 42 42 42 43 43 44 45 45 45 45 46 47 48 48 49 50 50 50 50 50 51 51 51 52 51 52 52 53 52 51 50 50 51 51 51 51 51 50 50 50
42 42 43 44 44 44 45 45 46 46 46 46 46 47 48 49 50 50 51 51 51 51 51 51 50 50 51 51 51 52 52 51 50 50 50 50 50 50 50 49 49 49 50
44 44 45 45 45 46 46 46 46 46 47 47 48 48 49 49 50 51 51 52 52 52 51 51 51 50 50 50 51 51 50 50 49 49 49 49 48 48 48 48 48 48 48
45 45 46 46 46 46 47 47 47 47 47 48 49 49 49 50 50 50 51 51 51 50 50 50 50 49 49 49 49 49 48 48 48 47 47 47 47 47 47 46 46 46 46
46 46 46 47 46 47 47 47 47 48 48 48 49 49 49 50 50 49 49 49 49 49 48 48 48 48 48 48 47 48 48 47 47 47 47 47 47 46 46 46 45 45 45
47 47 47 46 46 46 47 47 48 48 49 49 49 49 49 49 49 48 48 47 47 47 47 46 47 47 47 47 47 47 47 46 46 46 45 45 45 45 44 44 44 44 44
47 46 46 46 46 46 47 47 47 48 48 48 48 48 47 47 47 46 46 46 46 46 46 46 46 45 45 45 45 46 46 46 45 44 43 43 43 42 43 43 42 42 42
47 47 47 46 46 46 47 47 47 47 47 46 46 46 46 45 45 45 45 45 45 45 44 44 44 44 44 44 44 45 45 44 44 42 41 40 40 40 40 40 40 40 40
46 46 47 46 46 46 46 46 45 45 45 44 44 44 44 43 43 43 44 44 43 43 43 43 43 43 43 43 43 43 43 42 41 41 40 39 38 38 38 38 38 38 38
46 46 45 45 45 45 45 44 44 44 44 44 44 43 43 43 42 42 42 42 42 42 42 41 42 42 42 42 43 42 41 40 40 39 38 37 36 36 37 37 37 37 36
45 45 45 44 44 44 44 44 44 43 43 43 43 42 42 42 42 42 41 41 41 40 40 40 41 41 42 42 41 41 40 39 38 38 37 36 35 35 35 35 35 35 35

GEFSMW_500_meanwind_198.txt.gz
Wind_Speed
19 20 21 21 23 24 25 26 28 28 28 28 27 26 26 27 27 28 30 30 30 30 29 30 30 30 31 31 31 31 31 31 32 32 33 33 33 33 34 35 35 35 35
20 21 21 22 22 23 24 25 26 27 27 28 28 28 27 27 26 27 29 29 30 31 31 31 31 31 32 32 33 33 33 32 32 33 33 33 33 34 35 35 36 36 36
20 21 22 22 22 23 24 24 25 27 27 28 28 28 30 29 28 28 29 30 31 32 32 32 32 33 33 34 35 35 35 36 36 36 35 35 35 35 34 35 36 36 36
21 21 22 22 23 24 24 24 24 25 27 28 28 29 30 29 28 28 29 30 31 32 33 34 34 34 35 36 36 37 37 38 38 38 38 38 39 38 37 36 37 37 38
21 22 22 22 23 24 25 25 25 25 27 28 29 30 30 30 29 29 30 31 32 33 34 35 35 36 37 37 38 39 39 40 40 40 40 41 41 41 41 40 40 40 41
21 21 22 22 23 24 25 26 27 27 28 28 29 30 30 30 29 30 31 32 33 33 35 37 37 37 39 40 40 41 41 41 42 42 42 43 43 43 43 43 42 42 43
22 23 23 23 23 25 26 27 28 28 29 29 29 30 30 30 31 32 32 33 34 35 36 38 38 39 41 41 42 43 43 43 44 44 44 45 45 46 46 46 45 44 44
23 24 24 25 25 26 27 28 29 30 30 30 30 30 32 32 33 33 34 35 36 37 38 38 39 40 41 42 42 43 43 44 44 44 45 46 46 47 47 47 47 47 46
24 25 26 26 27 27 29 29 30 31 31 31 32 32 33 33 34 35 36 36 37 39 39 40 41 41 42 43 43 44 44 45 45 45 45 46 47 48 48 49 49 49 49
25 26 26 27 28 29 30 31 31 32 32 33 34 34 34 36 36 37 37 39 39 40 41 42 42 43 43 44 44 45 45 46 46 46 47 48 49 49 49 50 50 51 52
26 27 28 29 29 31 32 33 34 35 35 36 36 36 37 38 38 39 40 41 41 42 43 43 44 45 45 46 46 46 46 47 48 48 49 50 50 51 51 51 52 52 53
29 29 30 31 32 32 33 34 36 37 38 39 38 39 40 40 41 42 42 43 44 44 44 45 45 46 47 47 47 46 47 48 49 49 50 51 51 52 53 53 54 54 54
31 32 33 34 35 36 36 37 37 38 39 40 40 41 42 43 44 44 45 46 46 46 47 47 48 48 48 48 48 48 48 48 49 50 51 51 52 53 54 54 54 54 54
34 35 36 37 38 39 39 40 40 41 41 42 42 43 44 44 45 46 47 48 48 49 49 50 50 50 51 50 49 50 50 50 50 51 51 52 53 53 54 55 55 55 55
37 38 39 39 40 41 41 42 42 43 44 44 45 45 46 46 46 47 49 50 51 51 52 52 51 51 52 52 51 52 52 52 52 52 52 53 54 54 55 55 55 55 55
40 41 41 42 43 43 44 44 44 45 46 46 46 47 47 47 48 48 49 50 51 52 52 52 52 52 53 53 53 52 53 53 53 53 53 54 54 54 54 55 55 55 55
42 43 43 44 45 46 46 46 46 47 47 48 48 48 49 49 50 50 50 51 51 51 51 51 51 51 51 52 52 52 52 52 52 52 52 52 53 53 54 54 54 54 54
43 44 45 45 46 47 47 48 48 49 49 49 49 50 50 51 51 51 51 51 51 51 51 51 51 51 51 52 53 53 52 51 51 52 52 52 52 53 53 53 53 53 53
44 44 45 46 46 47 47 48 49 49 49 49 50 50 51 51 51 51 51 51 52 51 51 51 52 52 51 51 52 52 52 52 51 52 53 53 53 53 53 53 52 52 52
44 44 45 45 46 47 47 48 48 49 49 49 49 50 50 51 51 51 51 51 51 51 51 51 51 51 51 51 51 51 51 52 51 51 52 52 53 52 53 53 52 51 50
45 45 46 46 47 47 48 48 48 48 48 48 48 49 50 50 50 50 50 50 50 50 50 50 49 50 51 50 50 50 50 50 50 50 50 50 51 52 52 52 51 50 49
46 46 46 47 47 47 48 47 47 47 47 47 47 47 48 48 48 49 48 49 48 48 48 48 48 48 48 48 48 48 48 49 49 48 48 48 48 49 48 48 47 47 46
46 46 46 46 46 47 47 47 47 47 46 46 45 45 46 46 46 46 46 46 46 46 46 46 46 46 46 46 46 46 47 47 47 47 47 47 47 47 46 46 45 44 44
45 46 46 46 46 46 46 46 46 46 46 45 45 44 44 44 44 44 44 44 44 45 45 45 45 45 45 45 45 45 46 46 46 46 46 45 45 44 44 43 42 42 42
45 46 46 46 46 46 45 45 45 45 44 44 43 43 43 43 43 43 43 44 44 44 44 44 44 44 43 43 44 45 44 44 44 44 44 43 43 42 41 41 41 40 39
45 45 45 45 45 45 44 44 44 44 43 42 41 41 42 42 42 42 42 42 43 43 43 43 43 43 43 43 43 44 44 43 42 42 42 41 41 41 40 40 39 38 37

GEFSMW_500_meanwind_204.txt.gz
Wind_Speed
22 22 23 24 23 25 26 27 27 27 28 26 26 28 28 28 28 29 29 29 30 29 29 29 30 31 31 32 32 32 31 31 31 31 32 32 32 32 33 33 34 34 35
23 23 24 25 25 24 25 26 27 27 28 27 26 27 29 30 30 29 30 31 31 31 30 31 32 33 33 33 34 34 35 35 34 33 34 34 34 33 34 34 35 35 36
24 24 25 25 25 26 26 26 27 28 28 28 28 29 29 29 29 29 31 32 32 32 32 33 34 35 35 35 36 35 35 35 36 35 35 36 36 35 35 36 36 37 37
24 25 25 25 25 26 26 27 27 28 28 28 28 29 28 29 29 29 30 32 33 33 33 34 35 36 36 36 37 37 37 36 37 38 38 38 37 37 37 38 38 39 39
25 25 26 27 26 26 27 27 27 27 28 28 28 29 29 29 30 30 30 31 32 33 34 34 35 36 37 38 39 38 37 37 38 39 40 40 40 41 40 40 40 40 41
25 26 26 26 26 26 26 27 28 28 28 29 29 30 30 30 30 31 31 32 32 33 34 33 34 36 37 38 39 38 38 39 40 41 41 42 42 43 42 42 42 42 42
25 26 26 26 26 26 26 28 28 29 29 30 30 30 31 31 32 32 32 32 32 33 33 34 34 36 37 38 39 40 40 41 42 43 43 44 44 45 45 45 45 45 45
26 26 26 27 26 26 28 28 29 29 30 31 32 32 32 33 33 33 33 33 33 34 34 35 35 35 36 37 39 40 40 42 44 45 45 45 46 47 48 48 48 48 47
27 27 27 28 27 27 28 29 29 30 30 31 32 32 33 33 34 34 34 34 35 35 36 36 37 37 38 39 40 41 42 43 44 45 46 46 48 49 49 50 50 50 49
28 28 29 29 29 29 29 30 30 30 31 31 32 33 34 34 35 36 36 36 36 37 37 37 38 39 40 41 42 43 44 45 46 47 47 48 49 49 50 51 51 51 51
30 30 30 31 31 31 31 31 31 32 33 33 34 34 36 37 37 38 38 38 39 40 39 40 41 42 42 43 44 45 46 47 48 49 49 50 51 51 51 52 52 53 53
31 31 31 32 33 33 33 34 34 34 35 36 37 37 38 39 39 40 41 41 41 42 42 43 44 44 45 46 46 47 48 48 49 50 51 51 52 52 52 53 53 54 54
32 32 32 33 34 35 36 37 38 37 37 38 39 40 40 41 42 42 43 43 43 44 45 45 46 47 47 48 49 49 50 51 51 51 52 53 53 53 53 54 54 55 55
34 34 35 35 36 37 38 39 40 40 40 40 41 41 42 44 45 45 45 45 45 46 47 48 48 49 50 51 51 51 52 53 53 53 53 54 54 54 54 55 55 56 56
36 37 37 38 39 39 40 41 42 43 44 43 44 44 45 45 46 46 46 47 47 48 48 49 50 50 51 52 53 53 54 54 55 55 54 55 55 55 55 55 55 55 56
39 40 40 41 41 42 42 43 44 45 46 46 46 46 47 47 48 48 48 49 49 49 50 51 52 52 53 53 54 54 55 55 55 55 55 55 54 54 55 55 55 55 56
41 42 43 43 44 44 44 45 46 46 46 47 47 47 48 48 49 50 50 51 51 52 52 53 54 54 54 55 55 56 56 55 55 55 55 54 54 54 55 55 55 55 55
43 44 45 45 45 46 46 46 47 46 46 47 47 48 49 50 51 52 52 53 53 54 54 55 55 56 55 56 56 56 56 55 55 54 54 54 53 54 54 54 53 53 53
44 45 46 46 47 47 47 47 48 48 48 48 49 49 50 51 52 53 53 54 54 55 55 55 55 55 55 55 55 56 55 55 54 53 53 53 53 53 53 53 53 53 53
45 46 46 46 47 47 48 48 49 49 50 50 51 51 51 52 52 53 54 54 54 54 54 54 54 54 54 54 54 54 54 53 53 53 53 53 53 53 54 54 54 54 53
45 45 46 47 47 48 49 49 49 50 50 51 51 51 52 52 52 52 52 52 52 52 52 52 52 52 52 52 52 52 52 52 51 51 51 52 52 52 53 53 54 53 53
45 45 46 46 47 48 49 49 49 50 51 51 51 51 51 51 51 51 51 51 50 50 50 50 49 49 50 49 49 49 49 50 50 50 50 50 51 51 52 52 52 53 53
45 46 46 46 47 48 49 49 50 50 51 51 52 52 52 51 50 50 49 48 48 48 48 48 47 47 47 47 47 48 48 48 49 49 49 49 49 50 50 50 50 51 50
45 46 46 47 47 48 49 50 51 52 52 52 51 51 51 50 49 48 47 47 46 46 46 46 46 46 46 46 46 46 47 47 48 48 47 47 47 47 47 48 48 48 47
45 46 46 47 47 48 49 50 51 52 51 50 50 49 49 48 47 46 46 46 46 45 45 45 45 45 45 45 46 46 46 46 46 46 45 45 45 45 45 45 45 45 45
44 45 45 46 47 48 48 49 50 50 50 49 48 47 46 46 45 45 45 44 44 44 44 44 44 44 44 44 45 44 44 44 44 44 43 43 42 42 42 42 42 42 41

GEFSMW_500_meanwind_210.txt.gz
Wind_Speed
22 23 22 22 22 23 25 26 27 29 29 30 30 30 30 31 32 31 31 31 31 31 31 31 31 30 30 29 30 30 30 31 31 32 32 32 31 31 31 32 32 33 32
23 23 22 21 22 23 25 27 28 28 29 29 29 29 30 32 32 32 32 31 31 32 32 32 32 32 31 31 31 31 32 33 33 34 34 35 35 33 33 33 34 34 35
23 23 23 23 22 23 25 27 28 28 29 28 28 30 30 30 31 31 31 31 32 32 32 32 32 32 33 33 33 33 34 35 35 36 37 37 37 36 35 36 36 36 36
24 24 24 24 23 24 26 27 28 30 29 28 28 29 30 31 32 32 33 33 32 33 33 33 34 34 34 35 35 35 35 36 36 37 38 38 39 38 37 37 37 38 37
25 24 24 25 24 25 26 27 28 29 29 29 29 30 31 32 32 33 34 34 34 35 35 35 35 36 36 36 36 37 37 37 37 38 38 39 39 39 39 38 37 38 39
26 25 25 26 26 25 26 27 29 28 28 29 30 31 31 32 33 34 35 35 35 36 37 37 37 37 37 37 37 38 38 37 37 38 38 39 40 41 41 41 40 40 40
28 27 27 27 28 27 27 27 29 29 29 29 30 31 31 32 33 34 36 36 36 36 37 38 39 38 38 38 38 39 39 39 38 39 40 40 41 42 43 43 43 43 43
28 29 29 29 29 30 29 29 29 29 30 30 31 31 31 31 32 32 33 35 36 37 38 38 39 40 39 39 39 40 40 40 40 41 42 42 43 44 45 46 46 46 45
29 29 30 31 31 31 31 31 30 30 30 30 30 31 31 31 31 33 34 35 35 35 36 37 39 40 40 41 41 40 41 41 42 42 44 44 45 47 47 48 48 48 48
30 30 30 31 31 32 32 32 32 30 30 31 31 32 32 33 34 35 36 36 36 36 36 37 39 39 41 41 41 42 42 42 43 43 45 46 47 48 49 50 50 51 51
31 31 32 32 32 33 33 33 33 32 32 33 33 33 34 35 36 36 37 38 38 38 39 39 40 41 42 43 43 43 44 44 45 46 46 47 49 50 51 52 53 53 54
31 31 32 33 34 34 35 35 35 35 35 35 35 36 36 37 37 38 39 39 39 39 40 41 42 43 43 44 45 46 46 47 47 48 49 49 51 52 52 53 53 54 55
32 32 33 33 34 35 36 36 36 37 38 38 38 38 39 39 39 39 40 41 41 42 43 44 45 45 46 47 48 48 49 50 50 50 51 52 52 53 54 53 54 55 55
33 34 34 35 35 36 37 38 38 39 40 40 40 40 41 41 42 42 42 43 43 44 45 46 47 48 49 49 50 50 51 52 52 52 52 53 53 54 55 55 55 55 56
35 36 36 37 37 38 39 39 40 40 41 42 42 42 43 43 43 44 44 45 45 46 47 48 49 50 50 51 52 52 53 54 54 54 54 54 54 55 56 56 56 56 56
38 38 39 39 39 40 41 41 42 42 43 43 44 44 45 46 46 46 46 46 46 47 48 49 50 50 51 52 54 54 55 55 55 55 55 55 55 56 56 56 56 56 57
40 40 40 40 41 42 42 43 43 44 44 45 45 46 47 48 48 48 48 47 48 48 49 50 50 51 52 53 54 55 55 55 55 55 56 56 56 57 57 57 57 57 57
41 40 41 42 43 43 44 45 45 45 46 46 46 47 47 48 49 49 48 48 49 50 50 51 51 52 53 54 55 55 56 56 56 56 57 57 57 57 57 57 57 56 56
41 41 42 43 43 44 45 46 46 46 46 46 46 47 47 48 48 49 50 50 51 51 52 53 54 54 54 55 55 56 56 56 56 57 57 57 57 57 57 56 56 56 56
42 42 43 43 44 45 46 46 46 46 47 47 47 47 48 48 49 49 50 50 51 53 54 54 55 55 55 55 55 56 56 56 57 57 56 56 56 56 55 55 55 55 55
41 41 42 43 44 45 46 46 46 47 47 48 47 48 48 49 49 50 50 51 52 53 53 54 54 54 54 54 54 54 54 55 55 55 54 54 54 54 54 54 54 54 54
39 40 41 42 43 45 46 46 46 47 48 48 48 48 49 49 49 49 50 51 52 52 52 52 52 52 53 53 53 53 53 53 53 52 52 52 52 52 52 52 53 53 53
39 40 41 41 43 44 45 45 46 46 47 48 48 48 48 48 49 50 50 51 51 51 52 51 51 51 51 52 51 51 51 50 50 50 50 50 51 51 51 51 52 52 52
38 39 40 40 41 42 43 44 45 45 46 47 47 48 48 48 49 49 50 50 50 50 51 50 50 50 50 49 48 48 48 48 48 48 48 49 49 48 48 48 48 49 49
38 38 38 39 40 41 42 43 44 45 45 46 47 48 48 49 49 49 49 49 49 49 49 49 48 48 47 46 46 46 45 46 46 47 47 46 46 45 45 46 46 46 46
36 37 38 39 40 40 41 42 44 44 45 46 47 48 48 48 48 48 48 48 48 48 48 47 47 46 45 44 44 45 44 44 45 45 44 44 44 44 44 44 44 44 44

GEFSMW_500_meanwind_216.txt.gz
Wind_Speed
28 27 26 27 28 28 28 27 28 29 31 32 31 29 29 29 30 31 31 31 31 31 31 30 31 30 29 28 28 29 29 29 29 29 29 29 29 29 29 30 32 32 31
29 27 26 26 28 27 26 26 27 29 30 31 31 30 30 29 29 29 31 31 32 32 32 31 31 31 31 30 30 30 30 30 29 30 30 30 30 31 31 32 33 34 34
28 28 27 26 27 26 26 27 27 28 30 31 31 30 30 29 29 30 30 31 31 32 32 32 33 32 32 31 31 31 31 31 31 31 32 32 32 32 33 34 34 35 36
29 28 27 26 26 26 26 28 28 29 30 31 31 31 31 31 31 31 32 33 33 33 34 34 34 33 33 33 33 33 33 33 33 33 33 33 34 34 35 35 36 37 37
30 29 28 28 27 27 27 28 29 30 31 32 32 31 31 33 33 32 32 33 34 35 35 35 35 35 34 34 34 34 35 35 35 35 35 36 37 37 37 37 37 38 38
30 29 29 29 29 29 28 27 29 31 31 32 33 31 32 33 34 33 34 35 35 35 35 36 36 36 36 36 36 36 37 37 37 38 38 38 39 39 40 40 39 39 40
32 31 30 29 30 30 29 28 29 31 32 33 34 32 32 34 35 35 36 37 37 36 37 37 37 37 37 37 37 37 38 39 39 40 40 40 40 41 42 42 42 42 42
31 31 31 30 31 30 29 29 30 31 32 32 33 33 33 34 35 35 36 38 38 39 38 38 38 39 40 40 40 40 40 41 41 42 42 43 43 43 43 44 44 43 43
30 31 31 30 31 31 30 30 30 31 32 32 32 31 32 32 33 33 35 37 39 39 40 40 40 41 42 43 42 42 43 43 43 43 44 45 44 44 45 46 46 45 45
30 31 31 31 32 32 32 31 31 31 32 32 33 32 32 33 33 34 35 36 37 39 39 41 42 42 43 44 44 44 44 44 45 45 45 46 46 46 46 47 47 48 49
32 32 32 32 32 33 33 33 32 32 33 33 34 33 33 33 33 35 36 38 39 40 41 42 42 43 44 45 45 46 46 46 47 47 47 47 48 48 48 49 49 50 51
33 32 32 33 33 34 34 35 35 35 35 36 36 36 36 36 36 36 36 37 38 40 41 41 42 43 44 45 45 46 47 47 48 48 49 49 49 49 50 50 51 52 53
33 34 33 33 34 34 36 37 37 38 37 38 39 38 38 38 38 38 38 39 40 41 42 43 43 44 45 46 47 47 47 47 48 49 50 51 50 50 51 52 53 54 55
34 35 35 35 36 36 36 37 39 40 40 40 40 40 40 41 41 41 41 42 43 43 44 45 45 45 46 47 48 49 49 49 50 51 51 52 53 54 54 55 55 55 55
36 37 36 37 37 38 38 38 39 40 42 42 42 42 42 43 44 44 45 45 45 46 46 47 47 47 49 49 50 51 51 52 52 53 53 54 55 55 56 56 55 55 55
38 38 38 39 39 39 39 39 40 40 41 42 43 43 43 44 45 46 47 47 47 48 48 48 49 50 50 51 52 52 53 53 54 54 55 55 55 55 56 56 55 55 55
40 40 40 41 41 41 41 41 42 42 42 43 43 44 45 45 46 47 48 48 48 48 49 49 50 51 52 53 53 54 54 54 55 54 55 55 55 56 56 56 56 56 56
41 41 42 42 42 42 42 43 43 43 43 44 44 45 45 46 46 47 48 48 49 49 49 49 50 51 51 52 53 53 54 55 54 54 54 55 55 55 56 56 57 57 57
42 41 42 42 43 43 43 44 44 45 45 45 45 45 46 46 47 48 49 50 50 50 50 50 50 51 51 52 52 53 54 54 54 55 55 55 55 55 56 57 57 57 57
42 42 42 42 43 43 43 43 44 45 45 46 46 47 47 48 48 49 50 50 50 50 50 50 50 51 51 52 52 53 54 54 55 55 55 55 55 55 56 56 56 56 55
41 41 42 42 43 43 44 44 44 44 45 46 47 48 48 48 49 49 49 49 49 49 49 50 50 51 51 51 52 53 54 55 55 54 55 55 56 56 56 55 55 55 54
39 40 41 41 41 42 43 44 44 45 45 46 47 47 48 48 48 48 48 48 49 49 50 50 50 51 51 52 53 53 54 55 55 54 54 54 55 55 54 54 54 53 53
37 38 39 39 40 41 42 44 44 44 44 45 45 46 46 46 46 46 47 47 48 49 50 50 51 51 52 53 53 54 54 54 54 54 54 54 53 53 53 52 52 51 51
35 36 37 39 40 41 42 43 44 44 43 43 44 44 45 45 45 45 46 47 47 48 48 50 51 51 52 53 53 54 53 53 53 52 52 51 51 51 51 49 49 49 49
34 35 36 38 39 40 40 41 41 42 43 43 43 44 44 44 44 45 45 46 46 47 48 49 50 50 50 51 52 51 51 50 50 50 49 49 48 48 47 47 47 47 47
33 35 36 37 38 38 39 40 41 42 42 42 43 43 43 43 44 44 45 45 46 47 48 48 49 49 50 50 49 49 48 48 48 48 47 47 46 45 45 45 45 46 46